Weather in Rawalpindi

Pakistan     33°34′15″N   73°01′48″E
temp.,
°C
wind,
m/s
gust,
m/s
humid.,
%
clouds,
%
prec.,
mm/h
press.,
hPa
HPBL,
m
13 april, tue
tue1323:00+23nnw233838 0.0 101355
02:00+21n224287 0.0 101327
05:00+20ne2244100 0.0 101238
08:00+24nw3435100 0.0 1014257
11:00+29nw5424100 0.0 1013787
14:00+32wnw222047 0.0 10101687
17:00+31w2120100 0.0 10082026
20:00+25nnw483498 0.0 1010144
14 april, wed
wed1423:00+23nnw59407 0.0 1011221
02:00+22n2446100 0.4 101097
05:00+19nw2352100 0.4 101057
08:00+23nw344242 0.0 1012245
11:00+30wnw322780 0.0 1011712
14:00+33w332048 0.0 10082336
17:00+32wnw432196 0.0 10061817
20:00+27nnw5930100 0.0 1007224
15 april, thu
thu1523:00+25n2336100 0.0 100886
02:00+24nnw81535100 0.1 1009527
05:00+23ne81342100 0.3 1008341
08:00+24n4539100 0.1 1011435
11:00+29ne4528100 0.3 1010858
14:00+29nnw8729100 0.0 10081359
17:00+27n7834100 0.0 1006498
20:00+23nnw6943100 0.0 1008255
16 april, fri
fri1623:00
02:00+20nw2356100 0.0 100899
05:00+20nw4749100 0.1 1008175
08:00+22nw5644100 0.0 1009323
11:00+28nnw4530100 0.0 1008662
14:00+31n5620100 0.0 10062812
17:00+28nne5629100 0.0 1005385
20:00+24ene4739100 0.1 1007216
17 april, sat
sat1723:00+22nnw4658100 0.2 1007365
02:00+21ene2351100 0.1 100796
05:00+19se51173100 1.7 1008901
08:00+17ene3590100 6.0 1010331
11:00+19ene5772100 8.5 1011749
14:00+18nnw5676100 10.8 1010373
17:00+17n5789100 30.1 1011346
20:00+16ene51088100 5.4 1012513